Location: Decatur Area Astronomy Club
(40.0275°N, 88.7810°W)
Time: 17:33:39
(UTC-05:00)

Amateur Radio Satellites - All Passes

Search period start: 26 April 2015 17:03
Search period end: 27 April 2015 17:03
Location: Decatur Area Astronomy Club, 40.0275°N, 88.7810°W

Satellite Date Start Highest point End Downlink Frequencies (MHz)
Time Altitude Azimuth
DANDE 26 Apr 17:05:56 17:08:48 26° 88° (E) 17:12:26 436.750
STARS 26 Apr 17:12:39 17:16:04 21° 292° (WNW) 17:19:22 437.465
RS-15 26 Apr 17:21:16 17:30:32 29° 330° (NNW) 17:39:49 29.354- 29.394
VERMONT LUNAR 26 Apr 17:33:08 17:36:31 74° 167° (SSE) 17:39:54 437.305
CUTE-I 26 Apr 17:56:27 18:01:32 48° 71° (ENE) 18:06:38 437.470
ISS 26 Apr 17:56:34 17:59:44 45° 32° (NNE) 18:02:52 145.825
CUSAT 1 26 Apr 18:01:52 18:05:21 40° 288° (WNW) 18:09:57 437.405
Cubesat XI-IV 26 Apr 18:06:14 18:11:27 60° 73° (ENE) 18:16:42 437.490
PHONESAT 2.4 26 Apr 18:11:22 18:14:55 60° 163° (SSE) 18:18:28 2401.200-2431.200
JAS-2 26 Apr 18:23:20 18:25:59 11° 278° (W) 18:27:56 435.910
MOZHAYETS 4 26 Apr 18:30:38 18:34:37 29° 290° (WNW) 18:38:30
CUBESAT XI-V 26 Apr 18:32:59 18:36:37 23° 93° (E) 18:40:20 437.345
PRISM 26 Apr 18:39:59 18:42:02 14° 91° (E) 18:44:17 437.425
PCSat 26 Apr 18:45:29 18:50:04 28° 251° (WSW) 18:54:33 145.827
Cosmos 2499 26 Apr 18:49:07 18:58:00 82° 96° (E) 19:06:40 435.465 / 435.565
DANDE 26 Apr 18:49:48 18:52:19 17° 298° (WNW) 18:55:07 436.750
GONETS M04 26 Apr 18:51:09 18:57:44 22° 297° (WNW) 19:03:59
SO-50 26 Apr 18:51:57 18:54:31 14° 37° (NE) 18:57:15 436.795
STRAND 1 26 Apr 19:04:35 19:08:35 24° 93° (E) 19:12:42 437.568
M-CUBED/EXP-1 PRIME 26 Apr 19:06:04 19:10:02 43° 102° (ESE) 19:13:40 437.505
VERMONT LUNAR 26 Apr 19:10:37 19:14:01 82° 7° (N) 19:17:25 437.305
BRITE-PL 26 Apr 19:17:30 19:19:54 15° 66° (ENE) 19:22:31 437.365/2234.400
HO-68 26 Apr 19:30:39 19:36:21 27° 61° (ENE) 19:42:15 435.675
CANX-2 26 Apr 19:31:59 19:33:23 12° 65° (ENE) 19:35:02 2200.000
ISS 26 Apr 19:33:30 19:35:52 18° 228° (SW) 19:38:11 145.825
CUTE-I 26 Apr 19:37:54 19:41:55 21° 268° (W) 19:45:46 437.470
CUTE 1.7 + AOD 2 26 Apr 19:40:24 19:42:19 13° 65° (ENE) 19:44:27 437.475
RS-15 26 Apr 19:40:43 19:48:07 19° 5° (N) 19:55:47 29.354- 29.394
AUBIESAT-1 26 Apr 19:47:21 19:51:27 67° 291° (WNW) 19:55:12 437.475
Cubesat XI-IV 26 Apr 19:48:36 19:52:02 17° 270° (W) 19:55:14 437.490
PHONESAT 2.4 26 Apr 19:49:33 19:53:09 81° 358° (N) 19:56:45 2401.200-2431.200
CINEMA 3 26 Apr 20:07:39 20:09:19 12° 63° (ENE) 20:11:14 145.822/145.860
CUBESAT XI-V 26 Apr 20:10:00 20:14:09 33° 289° (WNW) 20:18:14 437.345
PRISM 26 Apr 20:13:53 20:17:48 44° 287° (WNW) 20:21:41 437.425
COMPASS 1 26 Apr 20:27:33 20:31:09 28° 71° (ENE) 20:34:50 437.405
SO-50 26 Apr 20:30:57 20:35:56 80° 58° (ENE) 20:40:50 436.795
GOMX 1 26 Apr 20:35:19 20:39:29 71° 76° (ENE) 20:43:53 467.674
DELFI C3 26 Apr 20:39:48 20:40:54 11° 65° (ENE) 20:42:14 145.870
M-CUBED/EXP-1 PRIME 26 Apr 20:41:54 20:44:31 16° 301° (WNW) 20:46:53 437.505
STRAND 1 26 Apr 20:43:12 20:47:57 39° 290° (WNW) 20:52:39 437.568
YUBILEINY 26 Apr 20:44:00 20:50:22 23° 64° (ENE) 20:57:02 435.215
Cosmos 2499 26 Apr 20:45:38 20:52:16 22° 296° (WNW) 20:58:23 435.465 / 435.565
VERMONT LUNAR 26 Apr 20:48:09 20:51:25 47° 200° (SSW) 20:54:40 437.305
Oscar 11 26 Apr 20:50:26 20:53:41 21° 68° (ENE) 20:57:04 145.826/435.025
SEEDS 26 Apr 20:54:09 20:58:24 71° 76° (ENE) 21:02:41 437.485
BRITE-PL 26 Apr 20:54:11 20:58:08 42° 262° (W) 21:02:13 437.365/2234.400
ZACube-1 26 Apr 20:55:04 20:57:07 14° 65° (ENE) 20:59:24 437.345
CANX-2 26 Apr 21:04:34 21:08:50 65° 259° (W) 21:13:08 2200.000
DOVE 4 26 Apr 21:06:08 21:10:23 80° 256° (WSW) 21:14:53 437.250
AAUSAT CUBESAT 2 26 Apr 21:08:29 21:12:42 72° 76° (ENE) 21:16:56 437.432
CUTE 1.7 + AOD 2 26 Apr 21:13:35 21:17:49 57° 260° (W) 21:22:04 437.475
HO-68 26 Apr 21:16:35 21:23:40 60° 258° (WSW) 21:30:47 435.675
DX 1 26 Apr 21:26:26 21:29:22 19° 67° (ENE) 21:32:25 434.975-435.025
PHONESAT 2.4 26 Apr 21:27:50 21:31:24 62° 196° (SSW) 21:34:56 2401.200-2431.200
CUBEBUG 2 26 Apr 21:32:54 21:37:08 51° 73° (ENE) 21:41:33 437.445
CINEMA 3 26 Apr 21:41:39 21:45:57 66° 260° (W) 21:50:30 145.822/145.860
RS-15 26 Apr 21:54:56 22:05:12 37° 38° (NE) 22:16:03 29.354- 29.394
UWE-3 26 Apr 21:56:23 22:00:44 77° 76° (ENE) 22:05:15 435.000/436.395/437.385
O/OREOS (USA 219) 26 Apr 21:57:40 22:02:00 43° 106° (ESE) 22:06:20 437.305
FUNcube-1 26 Apr 22:02:45 22:07:04 70° 75° (ENE) 22:11:31 145.935
COMPASS 1 26 Apr 22:03:24 22:06:50 23° 266° (W) 22:10:13 437.405
ESTCUBE 1 26 Apr 22:04:53 22:06:38 12° 64° (ENE) 22:08:38 437.505/2401.250
UKube-1 26 Apr 22:06:27 22:10:34 46° 72° (ENE) 22:14:43 .
DELFI C3 26 Apr 22:11:32 22:15:35 61° 260° (W) 22:19:38 145.870
SO-50 26 Apr 22:13:55 22:15:55 12° 252° (WSW) 22:17:35 436.795
HUMSAT D 26 Apr 22:14:11 22:18:12 44° 73° (ENE) 22:22:20 437.325/437.525
TIGRISAT 26 Apr 22:25:30 22:27:55 14° 89° (E) 22:30:32 435.000
Oscar 11 26 Apr 22:25:45 22:29:43 33° 264° (W) 22:33:39 145.826/435.025
VERMONT LUNAR 26 Apr 22:27:08 22:28:25 12° 214° (SW) 22:29:36 437.305
Cosmos 2491 26 Apr 22:28:17 22:36:32 51° 90° (E) 22:44:57 435.465 / 435.565
ZACube-1 26 Apr 22:28:44 22:33:00 58° 260° (W) 22:37:25 437.345
UNISAT 6 26 Apr 22:29:59 22:32:53 17° 90° (E) 22:35:57 437.425
VELOX 1 26 Apr 22:37:02 22:41:15 48° 73° (ENE) 22:45:30 145.980
YUBILEINY 26 Apr 22:39:32 22:48:17 76° 265° (W) 22:56:56 435.215
CUBEBUG 1 26 Apr 22:39:38 22:43:04 24° 69° (ENE) 22:46:35 437.445
POLYITAN 1 26 Apr 22:47:38 22:48:29 11° 88° (E) 22:49:38 437.675
50 SAT 26 Apr 22:52:31 22:56:29 77° 78° (ENE) 23:00:33 437.505
AISAT 26 Apr 22:55:14 22:59:37 80° 76° (ENE) 23:04:02 437.250
DX 1 26 Apr 23:01:18 23:05:21 39° 262° (W) 23:09:25 434.975-435.025
QB50P1 26 Apr 23:03:49 23:06:31 17° 91° (E) 23:09:22 145.935-145.965
PHONESAT 2.4 26 Apr 23:06:45 23:09:16 18° 211° (SSW) 23:11:42 2401.200-2431.200
ANTELSAT 26 Apr 23:10:53 23:15:25 45° 98° (E) 23:19:52 437.575/2403.000
CUBEBUG 2 26 Apr 23:11:51 23:14:15 14° 271° (W) 23:16:29 437.445
TISAT 1 26 Apr 23:21:09 23:23:17 14° 66° (ENE) 23:25:36 437.305
QB50P2 26 Apr 23:29:28 23:33:21 33° 97° (E) 23:37:16 145.880/145.840
O/OREOS (USA 219) 26 Apr 23:38:18 23:41:40 19° 304° (NW) 23:44:55 437.305
ESTCUBE 1 26 Apr 23:38:32 23:43:02 66° 259° (W) 23:47:31 437.505/2401.250
UKube-1 26 Apr 23:44:28 23:47:01 15° 269° (W) 23:49:22 .
NANOSAT C BR1 26 Apr 23:46:29 23:50:41 50° 100° (E) 23:54:51 145.865
POPSAT HIP 1 26 Apr 23:50:15 23:54:29 56° 100° (E) 23:58:44 437.405
HUMSAT D 26 Apr 23:51:46 23:54:16 15° 270° (W) 23:56:37 437.325/437.525
SPROUT 26 Apr 23:54:32 23:58:32 41° 72° (ENE) 00:02:36 437.525
TIGRISAT 27 Apr 00:00:27 00:05:06 56° 286° (WNW) 00:09:38 435.000
UNISAT 6 27 Apr 00:05:27 00:09:59 48° 287° (WNW) 00:14:26 437.425
RS-15 27 Apr 00:07:16 00:18:51 77° 242° (WSW) 00:30:53 29.354- 29.394
BUGSAT 1 27 Apr 00:07:59 00:12:07 61° 101° (E) 00:16:16 437.445
CUBEBUG 1 27 Apr 00:15:33 00:19:20 28° 264° (W) 00:23:05 437.445
VELOX 1 27 Apr 00:15:35 00:18:09 15° 269° (W) 00:20:31 145.980
DUCHIFAT 1 27 Apr 00:20:00 00:24:16 67° 285° (WNW) 00:28:30 145.980
POLYITAN 1 27 Apr 00:20:38 00:24:55 63° 285° (WNW) 00:29:11 437.675
Cosmos 2504 27 Apr 00:25:34 00:33:21 53° 76° (ENE) 00:40:37 435.465 / 435.565
Cosmos 2491 27 Apr 00:25:56 00:33:46 34° 290° (WNW) 00:41:29 435.465 / 435.565
BEESAT 27 Apr 00:32:28 00:35:13 16° 64° (ENE) 00:38:09 436.000
SWISSCUBE 27 Apr 00:34:48 00:37:55 18° 65° (ENE) 00:41:12 437.505
QB50P1 27 Apr 00:38:34 00:42:36 40° 288° (WNW) 00:46:37 145.935-145.965
YUBILEINY 27 Apr 00:39:52 00:43:47 13° 283° (WNW) 00:47:02 435.215
AIST 1 27 Apr 00:44:39 00:48:55 71° 96° (E) 00:53:12
ANTELSAT 27 Apr 00:48:32 00:51:53 19° 294° (WNW) 00:55:03 437.575/2403.000
TISAT 1 27 Apr 00:54:39 00:58:42 49° 261° (W) 01:02:47 437.305
QB50P2 27 Apr 01:05:48 01:09:05 21° 292° (WNW) 01:12:16 145.880/145.840
NANOSAT C BR1 27 Apr 01:23:43 01:26:09 15° 294° (WNW) 01:28:25 145.865
POPSAT HIP 1 27 Apr 01:27:47 01:29:57 13° 295° (WNW) 01:31:56 437.405
SPROUT 27 Apr 01:32:07 01:34:52 16° 269° (W) 01:37:28 437.525
ITUPSAT 1 27 Apr 01:37:55 01:42:41 69° 74° (ENE) 01:47:27 437.325
KKS-1 27 Apr 01:42:49 01:45:03 14° 65° (ENE) 01:47:29 437.445
BUGSAT 1 27 Apr 01:45:36 01:47:09 12° 295° (WNW) 01:48:30 437.445
BEESAT 3 27 Apr 01:53:14 01:56:31 24° 113° (ESE) 01:59:54 437.485
BEESAT 2 27 Apr 01:56:36 01:59:45 22° 113° (ESE) 02:03:01 435.950
BEESAT 27 Apr 02:07:57 02:12:39 57° 259° (W) 02:17:23 436.000
SWISSCUBE 27 Apr 02:10:48 02:15:27 49° 261° (W) 02:20:05 437.505
Gurwin Techsat 1B 27 Apr 02:13:14 02:16:00 15° 89° (E) 02:19:03 435.225
Cosmos 2504 27 Apr 02:19:46 02:26:20 28° 276° (W) 02:32:20 435.465 / 435.565
RS-15 27 Apr 02:22:43 02:29:50 17° 259° (W) 02:36:08 29.354- 29.394
STARS 27 Apr 02:32:16 02:36:01 29° 70° (ENE) 02:39:51 437.465
Oscar 19 27 Apr 02:35:03 02:40:19 89° 266° (W) 02:45:31 437.125/150
CUSAT 1 27 Apr 02:55:21 03:01:19 25° 66° (ENE) 03:07:57 437.405
GONETS M04 27 Apr 03:02:22 03:10:27 39° 71° (ENE) 03:18:35
AIST 2 27 Apr 03:05:06 03:09:01 38° 116° (ESE) 03:13:01 435.215
AO-7 27 Apr 03:11:40 03:12:37 10° 84° (E) 03:14:24 29.400- 29.500
ITAMSAT 1 27 Apr 03:12:56 03:18:04 63° 101° (E) 03:23:13 435.822/435.867
KKS-1 27 Apr 03:16:55 03:21:16 56° 260° (W) 03:25:40 437.445
ITUPSAT 1 27 Apr 03:19:16 03:21:10 12° 272° (W) 03:22:45 437.325
BEESAT 3 27 Apr 03:30:45 03:34:26 30° 310° (NW) 03:38:06 437.485
BEESAT 2 27 Apr 03:33:55 03:37:42 34° 309° (NW) 03:41:30 435.950
DANDE 27 Apr 03:43:26 03:50:32 42° 73° (ENE) 03:58:33 436.750
JAS-2 27 Apr 03:45:18 03:48:57 17° 86° (E) 03:52:39 435.910
Gurwin Techsat 1B 27 Apr 03:51:17 03:56:34 66° 286° (WNW) 04:01:49 435.225
HORYU 2 27 Apr 03:54:18 03:58:04 26° 95° (E) 04:01:52 437.375
MOZHAYETS 4 27 Apr 03:55:06 03:58:46 24° 69° (ENE) 04:02:33
STARS 27 Apr 04:08:52 04:12:29 24° 266° (W) 04:16:04 437.465
Oscar 19 27 Apr 04:17:06 04:18:58 12° 299° (WNW) 04:20:34 437.125/150
CUSAT 1 27 Apr 04:36:57 04:44:44 76° 263° (W) 04:53:03 437.405
Cosmos 2499 27 Apr 04:43:03 04:49:14 26° 66° (ENE) 04:55:16 435.465 / 435.565
AIST 2 27 Apr 04:44:17 04:47:45 23° 313° (NW) 04:51:10 435.215
ITAMSAT 1 27 Apr 04:53:51 04:57:07 17° 297° (WNW) 05:00:11 435.822/435.867
AO-7 27 Apr 04:58:56 05:07:13 66° 104° (ESE) 05:15:31 29.400- 29.500
GONETS M04 27 Apr 04:59:09 05:07:28 46° 271° (W) 05:15:38
AUBIESAT-1 27 Apr 05:00:56 05:03:50 17° 60° (ENE) 05:06:55 437.475
DANDE 27 Apr 05:26:36 05:33:52 45° 267° (W) 05:41:48 436.750
JAS-2 27 Apr 05:28:40 05:34:54 64° 288° (WNW) 05:40:25 435.910
HORYU 2 27 Apr 05:30:49 05:34:42 28° 291° (WNW) 05:38:28 437.375
PRISM 27 Apr 05:31:18 05:32:08 11° 64° (ENE) 05:33:12 437.425
MOZHAYETS 4 27 Apr 05:31:39 05:35:52 33° 264° (W) 05:40:03
CUBESAT XI-V 27 Apr 05:36:09 05:39:38 22° 68° (ENE) 05:43:13 437.345
M-CUBED/EXP-1 PRIME 27 Apr 05:52:33 05:57:17 58° 69° (ENE) 06:02:02 437.505
CUTE-I 27 Apr 06:15:00 06:18:44 20° 91° (E) 06:22:39 437.470
STRAND 1 27 Apr 06:19:47 06:24:15 32° 69° (ENE) 06:28:48 437.568
CUSAT 1 27 Apr 06:22:21 06:26:41 15° 277° (W) 06:30:36 437.405
Cubesat XI-IV 27 Apr 06:24:45 06:29:00 25° 93° (E) 06:33:23 437.490
AUBIESAT-1 27 Apr 06:33:26 06:38:10 62° 254° (WSW) 06:42:56 437.475
Cosmos 2499 27 Apr 06:35:28 06:42:59 56° 268° (W) 06:49:58 435.465 / 435.565
AO-7 27 Apr 06:52:37 06:59:30 29° 302° (WNW) 07:06:12 29.400- 29.500
PRISM 27 Apr 07:02:58 07:07:07 67° 258° (WSW) 07:11:16 437.425
CUBESAT XI-V 27 Apr 07:12:37 07:16:54 36° 263° (W) 07:21:09 437.345
M-CUBED/EXP-1 PRIME 27 Apr 07:29:25 07:32:28 16° 265° (W) 07:35:21 437.505
PCSat 27 Apr 07:42:45 07:47:45 41° 112° (ESE) 07:52:50 145.827
CUTE-I 27 Apr 07:54:01 07:59:09 50° 289° (WNW) 08:04:16 437.470
STRAND 1 27 Apr 07:59:03 08:03:29 29° 265° (W) 08:07:51 437.568
Cubesat XI-IV 27 Apr 08:04:19 08:09:16 40° 290° (WNW) 08:14:12 437.490
O/OREOS (USA 219) 27 Apr 08:08:07 08:12:37 75° 67° (ENE) 08:17:04 437.305
GOMX 1 27 Apr 08:37:18 08:41:35 26° 93° (E) 08:46:07 467.674
Cosmos 2491 27 Apr 08:39:52 08:46:35 24° 65° (ENE) 08:53:37 435.465 / 435.565
SEEDS 27 Apr 08:41:17 08:42:56 12° 89° (E) 08:44:49 437.485
HO-68 27 Apr 08:45:32 08:51:26 28° 93° (E) 08:57:29 435.675
CANX-2 27 Apr 08:51:16 08:54:36 22° 93° (E) 08:57:59 2200.000
AAUSAT CUBESAT 2 27 Apr 08:54:26 08:55:52 12° 89° (E) 08:57:32 437.432
BRITE-PL 27 Apr 08:57:54 09:03:02 61° 100° (E) 09:08:30 437.365/2234.400
CUTE 1.7 + AOD 2 27 Apr 09:00:00 09:03:31 25° 94° (E) 09:07:05 437.475
DOVE 4 27 Apr 09:05:24 09:09:59 32° 95° (E) 09:14:45 437.250
TIGRISAT 27 Apr 09:24:39 09:26:29 13° 63° (ENE) 09:28:33 435.000
CUBEBUG 2 27 Apr 09:26:28 09:28:29 13° 88° (E) 09:30:47 437.445
PCSat 27 Apr 09:26:35 09:31:19 29° 310° (NW) 09:36:01 145.827
UNISAT 6 27 Apr 09:29:08 09:31:32 15° 64° (ENE) 09:34:09 437.425
CINEMA 3 27 Apr 09:37:03 09:41:33 33° 95° (E) 09:46:07 145.822/145.860
YUBILEINY 27 Apr 09:44:53 09:51:35 26° 83° (E) 09:58:35 435.215
COMPASS 1 27 Apr 09:46:38 09:50:47 57° 100° (E) 09:54:54 437.405
UWE-3 27 Apr 09:48:02 09:51:08 18° 91° (E) 09:54:22 435.000/436.395/437.385
DELFI C3 27 Apr 09:52:37 09:55:22 18° 92° (E) 09:58:15 145.870
FUNcube-1 27 Apr 09:53:15 09:55:51 15° 90° (E) 09:58:38 145.935
QB50P1 27 Apr 09:57:22 09:59:02 12° 65° (ENE) 10:00:54 145.935-145.965
ANTELSAT 27 Apr 10:09:14 10:13:22 37° 71° (ENE) 10:17:41 437.575/2403.000
BEESAT 3 27 Apr 10:12:50 10:15:17 15° 42° (NE) 10:17:50 437.485
Oscar 11 27 Apr 10:13:21 10:17:31 44° 98° (E) 10:21:40 145.826/435.025
GOMX 1 27 Apr 10:14:58 10:19:47 39° 288° (WNW) 10:24:47 467.674
SEEDS 27 Apr 10:15:00 10:19:09 52° 286° (WNW) 10:23:14 437.485
BEESAT 2 27 Apr 10:16:40 10:18:57 15° 42° (NE) 10:21:20 435.950
ZACube-1 27 Apr 10:18:19 10:22:19 29° 95° (E) 10:26:19 437.345
QB50P2 27 Apr 10:22:16 10:25:36 24° 69° (ENE) 10:29:02 145.880/145.840
CANX-2 27 Apr 10:26:49 10:30:35 30° 289° (WNW) 10:34:15 2200.000
AAUSAT CUBESAT 2 27 Apr 10:27:49 10:31:55 53° 285° (WNW) 10:35:56 437.432
HO-68 27 Apr 10:32:34 10:39:32 54° 291° (WNW) 10:46:26 435.675
ISS 27 Apr 10:35:24 10:37:40 18° 132° (SE) 10:40:01 145.825
Cosmos 2491 27 Apr 10:35:37 10:44:26 72° 266° (W) 10:53:11 435.465 / 435.565
CUTE 1.7 + AOD 2 27 Apr 10:35:47 10:39:25 26° 290° (WNW) 10:42:56 437.475
BRITE-PL 27 Apr 10:37:42 10:41:12 18° 293° (WNW) 10:44:38 437.365/2234.400
NANOSAT C BR1 27 Apr 10:38:37 10:42:23 34° 71° (ENE) 10:46:15 145.865
POPSAT HIP 1 27 Apr 10:42:32 10:46:24 38° 72° (ENE) 10:50:22 437.405
DOVE 4 27 Apr 10:43:09 10:47:41 31° 290° (WNW) 10:52:15 437.250
SO-50 27 Apr 10:45:13 10:49:13 30° 113° (ESE) 10:53:23 436.795
AISAT 27 Apr 10:47:51 10:50:34 16° 91° (E) 10:53:27 437.250
DX 1 27 Apr 10:50:07 10:54:07 35° 98° (E) 10:58:08 434.975-435.025
AIST 1 27 Apr 10:53:34 10:56:11 16° 70° (ENE) 10:58:58
BUGSAT 1 27 Apr 10:57:40 11:01:22 37° 72° (ENE) 11:05:07 437.445
TIGRISAT 27 Apr 10:58:10 11:02:40 69° 259° (W) 11:07:19 435.000
CUBEBUG 2 27 Apr 11:00:56 11:05:42 64° 285° (WNW) 11:10:24 437.445
UNISAT 6 27 Apr 11:03:22 11:07:51 58° 260° (W) 11:12:26 437.425
DUCHIFAT 1 27 Apr 11:11:31 11:15:42 82° 77° (ENE) 11:19:57 145.980
POLYITAN 1 27 Apr 11:12:46 11:16:59 88° 72° (ENE) 11:21:16 437.675
CINEMA 3 27 Apr 11:14:22 11:18:38 28° 291° (WNW) 11:22:50 145.822/145.860
UWE-3 27 Apr 11:23:25 11:27:55 45° 287° (WNW) 11:32:21 435.000/436.395/437.385
COMPASS 1 27 Apr 11:24:12 11:26:02 12° 295° (WNW) 11:27:40 437.405
DELFI C3 27 Apr 11:27:00 11:30:38 32° 288° (WNW) 11:34:12 145.870
AIST 2 27 Apr 11:27:39 11:31:03 23° 47° (NE) 11:34:28 435.215
FUNcube-1 27 Apr 11:28:04 11:32:32 50° 286° (WNW) 11:36:56 145.935
QB50P1 27 Apr 11:30:19 11:34:28 58° 260° (W) 11:38:40 145.935-145.965
UKube-1 27 Apr 11:30:22 11:34:43 85° 284° (WNW) 11:39:03 .
ESTCUBE 1 27 Apr 11:32:22 11:36:07 26° 95° (E) 11:39:55 437.505/2401.250
HUMSAT D 27 Apr 11:34:22 11:38:44 86° 284° (WNW) 11:43:02 437.325/437.525
YUBILEINY 27 Apr 11:39:01 11:47:47 65° 281° (WNW) 11:56:34 435.215
ANTELSAT 27 Apr 11:46:49 11:50:19 21° 268° (W) 11:53:46 437.575/2403.000
BEESAT 3 27 Apr 11:49:40 11:53:43 59° 242° (WSW) 11:57:40 437.485
Oscar 11 27 Apr 11:50:36 11:53:23 16° 294° (WNW) 11:56:01 145.826/435.025
BEESAT 2 27 Apr 11:53:26 11:57:32 66° 241° (WSW) 12:01:33 435.950
ZACube-1 27 Apr 11:54:41 11:58:36 27° 291° (WNW) 12:02:23 437.345
QB50P2 27 Apr 11:57:45 12:01:24 28° 265° (W) 12:05:03 145.880/145.840
CUBEBUG 1 27 Apr 12:04:19 12:08:35 52° 100° (E) 12:12:53 437.445
VELOX 1 27 Apr 12:04:21 12:08:49 75° 284° (WNW) 12:13:14 145.980
50 SAT 27 Apr 12:05:00 12:09:00 59° 285° (WNW) 12:12:55 437.505
ISS 27 Apr 12:10:40 12:13:49 46° 328° (NNW) 12:16:59 145.825
Oscar 19 27 Apr 12:14:40 12:17:33 16° 63° (ENE) 12:20:38 437.125/150
NANOSAT C BR1 27 Apr 12:15:19 12:18:22 19° 267° (W) 12:21:20 145.865
POPSAT HIP 1 27 Apr 12:19:39 12:22:30 17° 268° (W) 12:25:13 437.405
AISAT 27 Apr 12:23:09 12:27:26 45° 288° (WNW) 12:31:41 437.250
RS-15 27 Apr 12:24:05 12:29:24 16° 100° (E) 12:35:37 29.354- 29.394
HO-68 27 Apr 12:25:15 12:25:53 10° 310° (NW) 12:26:02 435.675
SO-50 27 Apr 12:25:27 12:29:42 33° 312° (NW) 12:34:04 436.795
DX 1 27 Apr 12:26:53 12:30:10 21° 293° (WNW) 12:33:20 434.975-435.025
AIST 1 27 Apr 12:30:06 12:34:05 38° 267° (W) 12:38:02
BUGSAT 1 27 Apr 12:34:33 12:37:04 15° 269° (W) 12:39:25 437.445
Cosmos 2491 27 Apr 12:36:25 12:39:55 12° 283° (WNW) 12:42:42 435.465 / 435.565
TISAT 1 27 Apr 12:40:07 12:43:40 26° 95° (E) 12:47:17 437.305
ITAMSAT 1 27 Apr 12:55:07 12:56:36 11° 60° (ENE) 12:58:22 435.822/435.867
Cosmos 2504 27 Apr 13:01:20 13:09:39 48° 90° (E) 13:17:56 435.465 / 435.565
AIST 2 27 Apr 13:05:52 13:09:46 36° 245° (WSW) 13:13:34 435.215
ESTCUBE 1 27 Apr 13:09:07 13:12:58 28° 291° (WNW) 13:16:45 437.505/2401.250
SPROUT 27 Apr 13:17:26 13:21:48 88° 271° (W) 13:26:08 437.525
Gurwin Techsat 1B 27 Apr 13:33:19 13:37:22 23° 66° (ENE) 13:41:33 435.225
ITUPSAT 1 27 Apr 13:40:15 13:43:30 19° 92° (E) 13:46:53 437.325
CUBEBUG 1 27 Apr 13:42:05 13:44:35 15° 294° (WNW) 13:46:53 437.445
YUBILEINY 27 Apr 13:43:17 13:46:52 12° 305° (NW) 13:49:45 435.215
ISS 27 Apr 13:49:01 13:50:48 14° 347° (NNW) 13:52:34 145.825
Oscar 19 27 Apr 13:51:16 13:56:24 67° 259° (WSW) 14:01:35 437.125/150
JAS-2 27 Apr 13:59:00 14:00:56 11° 55° (NE) 14:03:21 435.910
AO-7 27 Apr 14:08:23 14:13:29 19° 52° (NE) 14:18:55 29.400- 29.500
BEESAT 27 Apr 14:08:58 14:13:22 37° 97° (E) 14:17:48 436.000
SWISSCUBE 27 Apr 14:11:44 14:16:16 44° 99° (E) 14:20:48 437.505
TISAT 1 27 Apr 14:15:50 14:19:24 26° 290° (WNW) 14:22:53 437.305
RS-15 27 Apr 14:29:20 14:40:09 78° 118° (ESE) 14:51:15 29.354- 29.394
ITAMSAT 1 27 Apr 14:30:15 14:35:26 89° 66° (ENE) 14:40:39 435.822/435.867
HORYU 2 27 Apr 14:52:15 14:55:47 24° 68° (ENE) 14:59:25 437.375
Cosmos 2504 27 Apr 14:55:03 15:03:15 39° 288° (WNW) 15:11:13 435.465 / 435.565
VERMONT LUNAR 27 Apr 15:05:28 15:07:30 15° 148° (SSE) 15:09:37 437.305
KKS-1 27 Apr 15:08:57 15:12:49 29° 96° (E) 15:16:45 437.445
Gurwin Techsat 1B 27 Apr 15:12:02 15:17:06 44° 262° (W) 15:22:11 435.225
ITUPSAT 1 27 Apr 15:17:07 15:21:39 44° 288° (WNW) 15:26:08 437.325
ISS 27 Apr 15:27:02 15:28:15 12° 7° (N) 15:29:28 145.825
JAS-2 27 Apr 15:37:07 15:44:43 57° 71° (ENE) 15:52:05 435.910
BEESAT 27 Apr 15:47:17 15:51:02 23° 293° (WNW) 15:54:38 436.000
SWISSCUBE 27 Apr 15:50:23 15:53:51 20° 294° (WNW) 15:57:10 437.505
PHONESAT 2.4 27 Apr 15:54:28 15:56:18 14° 147° (SSE) 15:58:14 2401.200-2431.200
AO-7 27 Apr 15:56:55 16:05:12 82° 71° (ENE) 16:13:32 29.400- 29.500
STARS 27 Apr 15:58:13 16:02:39 63° 101° (E) 16:07:03 437.465
GONETS M04 27 Apr 16:02:28 16:10:33 45° 89° (E) 16:18:49
CUSAT 1 27 Apr 16:06:56 16:07:41 11° 80° (E) 16:08:45 437.405
HORYU 2 27 Apr 16:28:15 16:32:18 32° 264° (W) 16:36:20 437.375
PCSat 27 Apr 16:31:11 16:35:56 30° 50° (NE) 16:40:44 145.827
VERMONT LUNAR 27 Apr 16:41:16 16:44:34 58° 163° (SSE) 16:47:55 437.305
KKS-1 27 Apr 16:45:37 16:49:24 26° 291° (WNW) 16:53:04 437.445
